Location: Sankt Anna
(58.3452°N, 16.7040°E)
Time: 02:08:45
(UTC+02:00)

N. Korean satellite - Visible Passes

Search period start: 21 October 2019 00:00
Search period end: 30 October 2019 23:00
Orbit: 455 x 508 km, 97.2° (Epoch: 20 October)

Date Brightness Start Highest point End Pass type
(mag) Time Alt. Az. Time Alt. Az. Time Alt. Az.
21 Oct 9.0 06:20:11 10° NNE 06:23:22 28° E 06:26:34 10° SSE visible
21 Oct 9.3 18:38:01 10° SSW 18:40:53 24° W 18:43:48 10° NW visible
22 Oct 9.9 05:55:20 10° NE 05:57:51 18° E 06:00:23 10° SE visible
22 Oct 8.1 18:12:07 10° S 18:15:25 41° W 18:18:46 10° NNW visible
23 Oct 10.5 05:31:18 10° ENE 05:32:15 11° E 05:33:12 10° E visible
23 Oct 6.9 07:02:41 10° NNE 07:06:20 73° ESE 07:09:58 10° S visible
23 Oct 10.5 19:23:31 10° W 19:24:08 10° W 19:24:43 10° WNW visible
24 Oct 8.1 06:37:28 10° NNE 06:40:56 41° E 06:44:26 10° S visible
24 Oct 9.9 18:56:06 10° SW 18:58:30 17° W 19:00:55 10° NW visible
25 Oct 9.2 06:12:24 10° NE 06:15:28 25° E 06:18:33 10° SSE visible
25 Oct 8.9 18:29:54 10° SSW 18:32:57 28° W 18:36:04 10° NNW visible
26 Oct 10.0 05:47:39 10° NE 05:49:55 15° E 05:52:11 10° SE visible
26 Oct 7.6 18:04:06 10° S 18:07:29 49° W 18:10:58 10° NNW visible
27 Oct 7.3 05:54:48 10° NNE 05:58:26 62° ESE 06:02:06 10° S visible
27 Oct 10.2 18:14:36 10° WSW 18:16:07 12° W 18:17:40 10° WNW visible
28 Oct 8.5 05:29:36 10° NNE 05:33:01 35° E 05:36:27 10° SSE visible
28 Oct 9.6 17:47:51 10° SW 17:50:30 20° W 17:53:14 10° NW visible
29 Oct 9.5 05:04:36 10° NE 05:07:31 22° E 05:10:26 10° SE visible
29 Oct 8.5 17:21:46 10° SSW 17:24:59 34° W 17:28:17 10° NNW visible
30 Oct 10.2 04:40:01 10° NE 04:41:56 14° E 04:43:51 10° ESE visible
30 Oct 6.7 06:12:12 10° NNE 06:15:53 90° NNW 06:19:36 10° SSW visible
30 Oct 7.2 16:56:05 10° S 16:59:32 60° WSW 17:03:06 10° NNW visible
